Location: Unspecified
(49.8670°N, 0.0000°E)
Time: 01:40:14
(UTC+00:00)

Vanguard 1 Rocket - Visible Passes

Search period start: 25 June 2019 00:00
Search period end: 05 July 2019 00:00
Orbit: 652 x 4224 km, 34.3° (Epoch: 23 June)

Date Brightness Start Highest point End Pass type
(mag) Time Alt. Az. Time Alt. Az. Time Alt. Az.
25 Jun 9.4 21:23:48 10° WSW 21:29:05 16° SW 21:33:03 10° S visible
27 Jun 9.7 21:26:51 10° WSW 21:31:16 14° SW 21:34:46 10° SSW visible
29 Jun 9.9 21:30:39 10° WSW 21:33:19 11° SW 21:35:38 10° SSW visible
